Regional Weather Roundup
Issued by NWS

Home | Current Version | Previous Version | Text Only | Print | Product List | Glossary Off
Versions: 1 2 3 4 5 6 7 8 9 10 11 12 13 14 15 16 17 18 19 20 21 22 23 24 25 26 27 28 29 30 31 32 33 34 35 36 37 38 39 40 41 42 43 44 45 46 47 48 49 50

000
ASUS43 KOAX 220402
RWRNE

WEATHER ROUNDUP FOR NEBRASKA
NATIONAL WEATHER SERVICE OMAHA NE
1000 PM CST SUN DEC 21 2014

NOTES: SATELLITE DATA IS BEING USED TO AUGMENT CLOUD COVER ABOVE
       12000 FEET.
       "FAIR" INDICATES FEW OR NO CLOUDS BELOW 12,000 FEET WITH NO
       SIGNIFICANT WEATHER AND/OR OBSTRUCTIONS TO VISIBILITY.

  * THESE STATIONS DO NOT REPORT WEATHER SUCH AS RAIN...SNOW OR FOG.

NEZ001>004-019>022-054>056-220500-
NEBRASKA PANHANDLE

CITY           SKY/WX    TMP DP  RH WIND       PRES   REMARKS
SCOTTSBLUFF    CLOUDY    39  31  72 W13       29.55S WCI  31
ALLIANCE       CLOUDY    37  30  75 NW16      29.52R WCI  28
CHADRON        MOCLDY    36  30  79 W13       29.52R WCI  27
SIDNEY         MOCLDY    38  32  79 NW13      29.57R WCI  30
$$

NEZ057>060-069>072-079>082-220500-
SOUTHWEST NEBRASKA

CITY           SKY/WX    TMP DP  RH WIND       PRES   REMARKS
NORTH PLATTE   MOCLDY    32  30  92 SW5       29.49R WCI  27
IMPERIAL       PTCLDY    36  29  75 W9        29.51S WCI  29
LEXINGTON      CLOUDY    39  37  91 S17       29.48F WCI  30
MCCOOK         CLOUDY    35  33  92 SE6       29.50F FOG     WCI  30
$$

NEZ005>010-023>029-035>040-094-220500-
NORTH CENTRAL NEBRASKA

CITY           SKY/WX    TMP DP  RH WIND       PRES   REMARKS
VALENTINE      CLOUDY    36  31  82 SW5       29.44R WCI  32
AINSWORTH      CLOUDY    34  32  92 S10       29.45R WCI  26
BROKEN BOW     CLOUDY    38  35  89 S7        29.49R WCI  33
$$

NEZ041-046>049-061>064-073>077-083>087-220500-
SOUTH CENTRAL NEBRASKA

CITY           SKY/WX    TMP DP  RH WIND       PRES   REMARKS
GRAND ISLAND   CLOUDY    41  39  93 S17       29.56F
HASTINGS       CLOUDY    41  38  89 S15       29.54F
HEBRON         CLOUDY    43  40  91 S10       29.63S FOG
KEARNEY *      CLOUDY    39  37  93 S17G23    29.54F WCI  30
$$

NEZ011>018-030>034-042>045-220500-
NORTHEAST NEBRASKA

CITY           SKY/WX    TMP DP  RH WIND       PRES   REMARKS
NORFOLK        LGT RAIN  41  39  93 S14       29.56R
BLAIR          CLOUDY    42  40  93 S17       29.64S FOG
COLUMBUS *     CLOUDY    41  37  87 S14       29.61S
TEKAMAH        LGT RAIN  43  41  93 S16       29.64F
$$

NEZ050>053-065>068-078-088>093-220500-
SOUTHEAST NEBRASKA

CITY           SKY/WX    TMP DP  RH WIND       PRES   REMARKS
LINCOLN        CLOUDY    43  41  93 S15       29.64F
OMAHA EPPLEY   DRIZZLE   43  41  93 S20       29.67F FOG
FALLS CITY     CLOUDY    43  41  93 S13       29.70F FOG
NEBRASKA CITY  CLOUDY    42  42 100 S15       29.68S FOG
$$

NEZ044-045-051>053-067-220500-
OMAHA AREA

CITY           SKY/WX    TMP DP  RH WIND       PRES   REMARKS
OMAHA EPPLEY   DRIZZLE   43  41  93 S20       29.67F FOG
BLAIR          CLOUDY    42  40  93 S17       29.64S FOG
OFFUTT AFB     CLOUDY    42  41  96 SE15      29.66S FOG
WAHOO          CLOUDY    42  40  91 S15       29.63S
$$



USA.gov is the U.S. government's official web portal to all federal, state and local government web resources and services.